Weather Roundup
Issued by NWS

Home | Current Version | Previous Version | Text Only | Print | Product List | Glossary On
Versions: 1 2 3 4 5 6 7 8 9 10 11 12 13 14 15 16 17 18 19 20 21 22 23 24 25 26 27 28 29 30 31 32 33 34 35 36 37 38 39 40 41 42 43 44 45 46 47 48 49 50
209
NZUS93 KARX 242310
HRRWXR

CURRENT HOURLY OBSERVATIONS ACROSS
MUCH OF THE UPPER MISSISSIPPI VALLEY
NATIONAL WEATHER SERVICE LA CROSSE WI
600 PM CDT THU MAY 24 2018


...SOUTHEAST MINNESOTA...


CITY           SKY/WX    TMP DP  RH WIND       PRES   REMARKS
ROCHESTER      FAIR      86  58  38 S23       29.94F
ROCHESTER/MAYO MOCLDY    87  56  34 S13G25    29.94F
WINONA         FAIR      86  64  48 S6        29.93F
AUSTIN         FAIR      84  54  34 S17G23    29.93F
ALBERT LEA     FAIR      86  55  35 S14       29.92F
DODGE CENTER   FAIR      86 N/A N/A S18       29.94F
PRESTON        FAIR      85  58  40 S18G25    29.96F
OWATONNA       FAIR      90  61  37 S14G24    29.91F
FARIBAULT      FAIR      90  61  37 S9G22     29.89F
$$

...ELSEWHERE IN MINNESOTA...


CITY           SKY/WX    TMP DP  RH WIND       PRES   REMARKS
MINNEAPOLIS    FAIR      91  62  37 SW16G26   29.87F HX  91
INTNL FALLS    FAIR      76  66  71 S12       29.83F
DULUTH         FAIR      75  66  73 SE12      29.89F
RED WING       FAIR      91  50  24 SW16G26   29.89S
REDWOOD FALLS  PTSUNNY   76  64  66 NE10      29.85R
MANKATO        PTSUNNY   90  59  35 SW16      29.87F
WORTHINGTON      N/A     82  59  45 SW12      29.90F
FAIRMONT       MOSUNNY   90  60  36 SW21G28   29.88F
$$

...SOUTHWEST WISCONSIN...


CITY           SKY/WX    TMP DP  RH WIND       PRES   REMARKS
LA CROSSE      FAIR      88  65  46 S16       29.94F HX  90
PRAIRIE DU CHI FAIR      86  59  38 SE6       29.97F
BOSCOBEL       FAIR      88  64  44 S8        29.98F
LONE ROCK      FAIR      85  65  51 S10       29.99F
PLATTEVILLE    FAIR      84  64  50 S10       30.02F
FORT MC COY    FAIR      83  62  48 S9G16     29.97F
CAMP DOUGLAS   PTSUNNY   84  63  48 S9        29.98F
MAUSTON-NEW LI FAIR      85  63  47 S10G16    29.98F
VIROQUA        MOCLDY    85  65  49 S13G18    30.00F
WIS DELLS      FAIR      85  55  34 S12       30.01F
$$

...ELSEWHERE IN WISCONSIN...


CITY           SKY/WX    TMP DP  RH WIND       PRES   REMARKS
MILWAUKEE      PTSUNNY   78  56  46 SE10      30.05F
MADISON        FAIR      85  60  42 SW8       30.01F
GREEN BAY      FAIR      83  61  47 S15       29.99F
EAU CLAIRE     FAIR      87  63  44 S16       29.91F
BLACK RVR FLS  FAIR      88  58  35 S7        29.96S
MEDFORD        FAIR      84  62  47 S18       29.97F
WAUSAU         FAIR      84  60  44 S15G23    29.96F
WIS RAPIDS     FAIR      84  61  45 SW9       29.99F
MARSHFIELD     FAIR      83  61  47 S12       29.98S
RICE LAKE      FAIR      86  57  36 S13       29.92F
$$

...NORTHEAST IOWA...


CITY           SKY/WX    TMP DP  RH WIND       PRES   REMARKS
WATERLOO       FAIR      86  63  45 S14       29.95F
DUBUQUE        FAIR      83  62  49 S10       30.02F
DECORAH        FAIR      86  61  42 S12G24    29.96F
MASON CITY     SUNNY     86  60  41 SW18G25   29.95S
CHARLES CITY   FAIR      88  57  35 S17G26    29.95F
OELWEIN        FAIR      88  63  42 S20       29.98F
$$

...ELSEWHERE IN IOWA...


CITY           SKY/WX    TMP DP  RH WIND       PRES   REMARKS
DES MOINES     MOSUNNY   86  65  49 S16       29.96F
IOWA CITY      FAIR      88  64  44 SE12      30.00F
FORT DODGE     MOSUNNY   86  65  49 S14G23    29.93F
MARSHALLTOWN   SUNNY     86  64  47 S16G25    29.96F
CEDAR RAPIDS   FAIR      87  65  47 S12       29.98F
$$

...NORTHERN ILLINOIS...


CITY           SKY/WX    TMP DP  RH WIND       PRES   REMARKS
CHICAGO-OHARE  PTSUNNY   85  55  35 S9        30.04F
CHICAGO-MIDWAY PTSUNNY   84  55  36 E14       30.04F
MOLINE         FAIR      89  60  37 S8        29.99F
ROCKFORD       PTSUNNY   84  59  42 S8        30.04F
PEORIA         FAIR      87  60  40 SW7       30.02F
$$

NOTE: "FAIR" INDICATES FEW OR NO CLOUDS BELOW 12,000 FEET WITH NO
SIGNIFICANT WEATHER AND/OR OBSTRUCTIONS TO VISIBILITY. WIND
SPEEDS ARE IN MILES-PER-HOUR.




USA.gov is the U.S. government's official web portal to all federal, state and local government web resources and services.